SWR5AT EPKK-LSZH

Flight info

Callsign SWR5AT
Flight time 1h 11m
Altitude 36000
Route TUSIN DCT MIKOV DCT TRAUN DCT KONIN L856 NEGRA
Aircraft A321/M-SDE3FGHIRWY/LB1

Departure

Time 2026-04-30 19:02
Airport Kraków John Paul II International Airport (EPKK)

Arrival

Time 2026-04-30 20:13
Airport Zürich Airport (LSZH)
Time Latitude Longitude Altitude Speed Heading
2026-04-30 18:34 50.07343 19.80205 800 ft 0 kts 168°
2026-04-30 18:51 50.07347 19.80204 800 ft 3 kts 168°
2026-04-30 18:51 50.07373 19.80195 800 ft 4 kts 168°
2026-04-30 18:51 50.07399 19.80187 800 ft 4 kts 163°
2026-04-30 18:51 50.07416 19.80171 800 ft 4 kts 99°
2026-04-30 18:52 50.07415 19.80140 800 ft 3 kts 77°
2026-04-30 18:52 50.07412 19.80121 800 ft 0 kts 77°
2026-04-30 18:55 50.07415 19.80139 800 ft 5 kts 78°
2026-04-30 18:55 50.07443 19.80338 800 ft 13 kts 69°
2026-04-30 18:55 50.07514 19.80400 800 ft 10 kts 17°
2026-04-30 18:56 50.07659 19.80399 800 ft 11 kts 347°
2026-04-30 18:56 50.07741 19.80371 800 ft 11 kts 348°
2026-04-30 18:56 50.07806 19.80350 800 ft 6 kts 348°
2026-04-30 18:57 50.07836 19.80340 800 ft 0 kts 348°
2026-04-30 19:00 50.07964 19.80296 800 ft 15 kts 347°
2026-04-30 19:00 50.08011 19.80199 800 ft 9 kts 263°
2026-04-30 19:00 50.07998 19.80091 801 ft 28 kts 258°
2026-04-30 19:01 50.07712 19.78050 801 ft 154 kts 258°
2026-04-30 19:01 50.07487 19.76337 1310 ft 160 kts 260°
2026-04-30 19:02 50.07019 19.72949 2705 ft 159 kts 261°
2026-04-30 19:02 50.06532 19.69591 3838 ft 160 kts 261°
2026-04-30 19:03 50.06023 19.65951 4527 ft 188 kts 262°
2026-04-30 19:03 50.05424 19.61654 5102 ft 218 kts 261°
2026-04-30 19:04 50.04715 19.56600 5702 ft 260 kts 260°
2026-04-30 19:04 50.03905 19.50894 7006 ft 277 kts 260°
2026-04-30 19:05 50.03049 19.44943 8420 ft 287 kts 261°
2026-04-30 19:05 50.02254 19.38811 9814 ft 297 kts 257°
2026-04-30 19:06 50.00911 19.32512 10715 ft 325 kts 253°
2026-04-30 19:06 50.00125 19.29083 10859 ft 346 kts 253°
2026-04-30 19:06 49.98507 19.21834 11874 ft 361 kts 254°
2026-04-30 19:07 49.96907 19.14330 13056 ft 371 kts 255°
2026-04-30 19:07 49.96105 19.10494 13659 ft 376 kts 255°
2026-04-30 19:08 49.94461 19.02661 14766 ft 386 kts 255°
2026-04-30 19:08 49.92774 18.94677 15876 ft 393 kts 255°
2026-04-30 19:08 49.91912 18.90630 16413 ft 396 kts 255°
2026-04-30 19:09 49.90174 18.82487 17461 ft 403 kts 255°
2026-04-30 19:09 49.89287 18.78339 17987 ft 407 kts 255°
2026-04-30 19:09 49.88392 18.74156 18497 ft 410 kts 255°
2026-04-30 19:10 49.86569 18.65701 19392 ft 418 kts 255°
2026-04-30 19:10 49.84412 18.57237 20192 ft 430 kts 243°
2026-04-30 19:11 49.82722 18.53382 20559 ft 437 kts 232°
2026-04-30 19:11 49.78827 18.46047 21322 ft 444 kts 232°
2026-04-30 19:11 49.76867 18.42337 21694 ft 447 kts 232°
2026-04-30 19:12 49.74894 18.38598 22065 ft 450 kts 232°
2026-04-30 19:12 49.72905 18.34827 22426 ft 454 kts 232°
2026-04-30 19:12 49.70908 18.31036 22764 ft 457 kts 232°
2026-04-30 19:13 49.66856 18.23379 23494 ft 463 kts 232°
2026-04-30 19:13 49.62764 18.15708 24160 ft 470 kts 231°
2026-04-30 19:13 49.60676 18.11803 24469 ft 473 kts 232°
2026-04-30 19:14 49.58578 18.07871 24781 ft 476 kts 232°
2026-04-30 19:14 49.56468 18.03914 25087 ft 479 kts 232°
2026-04-30 19:14 49.54343 17.99939 25399 ft 482 kts 231°
2026-04-30 19:14 49.52207 17.95952 25713 ft 485 kts 231°
2026-04-30 19:15 49.50050 17.91937 26016 ft 488 kts 231°
2026-04-30 19:15 49.45701 17.83866 26633 ft 493 kts 231°
2026-04-30 19:15 49.43503 17.79795 26928 ft 496 kts 231°
2026-04-30 19:16 49.41290 17.75700 27226 ft 499 kts 231°
2026-04-30 19:16 49.39067 17.71596 27524 ft 502 kts 231°
2026-04-30 19:16 49.34571 17.63321 28108 ft 507 kts 231°
2026-04-30 19:17 49.32308 17.59166 28396 ft 509 kts 231°
2026-04-30 19:17 49.27777 17.50843 28963 ft 514 kts 231°
2026-04-30 19:17 49.25470 17.46620 29249 ft 516 kts 231°
2026-04-30 19:18 49.21615 17.39581 29711 ft 521 kts 231°
2026-04-30 19:18 49.18495 17.33905 30072 ft 524 kts 230°
2026-04-30 19:18 49.16141 17.29635 30331 ft 526 kts 230°
2026-04-30 19:19 49.13775 17.25348 30549 ft 528 kts 230°
2026-04-30 19:19 49.11406 17.21060 30768 ft 529 kts 230°
2026-04-30 19:19 49.06652 17.12461 31221 ft 531 kts 230°
2026-04-30 19:20 49.04268 17.08164 31511 ft 529 kts 231°
2026-04-30 19:20 49.01894 17.03894 31828 ft 528 kts 230°
2026-04-30 19:20 48.97155 16.95397 32448 ft 525 kts 230°
2026-04-30 19:21 48.94798 16.91175 32749 ft 523 kts 231°
2026-04-30 19:21 48.90089 16.82756 33351 ft 521 kts 231°
2026-04-30 19:22 48.85433 16.74452 33927 ft 519 kts 231°
2026-04-30 19:22 48.78979 16.61446 34716 ft 510 kts 246°
2026-04-30 19:23 48.75644 16.46437 35378 ft 498 kts 259°
2026-04-30 19:24 48.73804 16.36336 35805 ft 496 kts 259°
2026-04-30 19:24 48.72880 16.31299 36015 ft 495 kts 259°
2026-04-30 19:24 48.71043 16.21343 36359 ft 494 kts 259°
2026-04-30 19:25 48.68273 16.06435 36391 ft 489 kts 259°
2026-04-30 19:26 48.64585 15.86622 36397 ft 489 kts 258°
2026-04-30 19:27 48.61778 15.71764 36396 ft 490 kts 258°
2026-04-30 19:28 48.58950 15.56923 36394 ft 490 kts 258°
2026-04-30 19:29 48.55171 15.37232 36390 ft 490 kts 258°
2026-04-30 19:30 48.51346 15.17492 36398 ft 490 kts 258°
2026-04-30 19:31 48.47497 14.97810 36404 ft 490 kts 258°
2026-04-30 19:31 48.44570 14.83045 36406 ft 490 kts 258°
2026-04-30 19:32 48.42612 14.73192 36401 ft 490 kts 258°
2026-04-30 19:32 48.40654 14.63363 36399 ft 490 kts 258°
2026-04-30 19:33 48.38681 14.53542 36397 ft 490 kts 258°
2026-04-30 19:33 48.36694 14.43729 36395 ft 491 kts 257°
2026-04-30 19:34 48.34701 14.33916 36393 ft 490 kts 257°
2026-04-30 19:35 48.31706 14.19233 36395 ft 491 kts 257°
2026-04-30 19:35 48.29693 14.09440 36393 ft 491 kts 257°
2026-04-30 19:36 48.27673 13.99642 36389 ft 491 kts 257°
2026-04-30 19:36 48.24629 13.85025 36384 ft 491 kts 257°
2026-04-30 19:37 48.22581 13.75259 36380 ft 491 kts 257°
2026-04-30 19:37 48.20535 13.65501 36376 ft 491 kts 257°
2026-04-30 19:38 48.18479 13.55743 36377 ft 491 kts 257°
2026-04-30 19:38 48.16413 13.46000 36379 ft 491 kts 257°
2026-04-30 19:39 48.14345 13.36263 36381 ft 491 kts 257°
2026-04-30 19:39 48.12267 13.26537 36384 ft 490 kts 257°
2026-04-30 19:40 48.10178 13.16815 36382 ft 490 kts 257°
2026-04-30 19:40 48.08092 13.07171 36382 ft 490 kts 256°
2026-04-30 19:41 48.05984 12.97482 36382 ft 490 kts 256°
2026-04-30 19:41 48.03870 12.87796 36381 ft 490 kts 256°
2026-04-30 19:42 48.01749 12.78126 36373 ft 490 kts 256°
2026-04-30 19:42 47.99620 12.68477 36369 ft 490 kts 256°
2026-04-30 19:43 47.97579 12.58800 36369 ft 485 kts 262°
2026-04-30 19:44 47.96118 12.43979 36359 ft 481 kts 268°
2026-04-30 19:44 47.95188 12.34111 36354 ft 480 kts 267°
2026-04-30 19:45 47.94248 12.24251 36353 ft 480 kts 267°
2026-04-30 19:45 47.93306 12.14405 36353 ft 480 kts 267°
2026-04-30 19:46 47.92360 12.04548 36356 ft 479 kts 267°
2026-04-30 19:46 47.91402 11.94721 36354 ft 479 kts 267°
2026-04-30 19:47 47.90440 11.84964 36351 ft 479 kts 267°
2026-04-30 19:47 47.89468 11.75150 36355 ft 478 kts 267°
2026-04-30 19:48 47.88490 11.65352 36354 ft 478 kts 266°
2026-04-30 19:48 47.87507 11.55551 36355 ft 478 kts 266°
2026-04-30 19:49 47.86510 11.45773 36358 ft 477 kts 266°
2026-04-30 19:49 47.84998 11.31131 36153 ft 476 kts 266°
2026-04-30 19:50 47.84496 11.26259 35897 ft 476 kts 266°
2026-04-30 19:50 47.84163 11.23032 35729 ft 476 kts 266°
2026-04-30 19:50 47.83659 11.18152 35464 ft 477 kts 266°
2026-04-30 19:50 47.83151 11.13273 35212 ft 478 kts 266°
2026-04-30 19:51 47.82636 11.08373 34966 ft 479 kts 266°
2026-04-30 19:51 47.82117 11.03492 34720 ft 480 kts 265°
2026-04-30 19:51 47.81587 10.98565 34476 ft 481 kts 265°
2026-04-30 19:51 47.81055 10.93639 34219 ft 482 kts 265°
2026-04-30 19:52 47.80524 10.88719 33874 ft 483 kts 265°
2026-04-30 19:52 47.79988 10.83767 33396 ft 482 kts 265°
2026-04-30 19:52 47.79453 10.78862 32777 ft 480 kts 265°
2026-04-30 19:52 47.78916 10.73969 32172 ft 477 kts 265°
2026-04-30 19:53 47.78382 10.69109 31588 ft 475 kts 265°
2026-04-30 19:53 47.77849 10.64284 31000 ft 472 kts 264°
2026-04-30 19:53 47.77314 10.59477 30420 ft 470 kts 264°
2026-04-30 19:53 47.76790 10.54764 29793 ft 467 kts 264°
2026-04-30 19:54 47.76284 10.50202 29261 ft 462 kts 264°
2026-04-30 19:54 47.75761 10.45510 28681 ft 457 kts 264°
2026-04-30 19:54 47.75242 10.40876 28126 ft 453 kts 264°
2026-04-30 19:54 47.74730 10.36287 27637 ft 446 kts 265°
2026-04-30 19:55 47.74504 10.31744 27141 ft 436 kts 272°
2026-04-30 19:55 47.74411 10.27268 26683 ft 430 kts 272°
2026-04-30 19:55 47.74311 10.22850 26220 ft 424 kts 272°
2026-04-30 19:55 47.74212 10.18519 25779 ft 417 kts 272°
2026-04-30 19:56 47.74110 10.14250 25350 ft 410 kts 272°
2026-04-30 19:56 47.74010 10.10051 24926 ft 403 kts 272°
2026-04-30 19:56 47.73912 10.05972 24513 ft 398 kts 272°
2026-04-30 19:56 47.73811 10.01892 24092 ft 393 kts 272°
2026-04-30 19:57 47.73713 9.97873 23630 ft 388 kts 272°
2026-04-30 19:57 47.73616 9.93897 23186 ft 382 kts 271°
2026-04-30 19:57 47.73520 9.89988 22773 ft 376 kts 271°
2026-04-30 19:57 47.73424 9.86119 22360 ft 371 kts 271°
2026-04-30 19:58 47.73327 9.82317 21958 ft 367 kts 271°
2026-04-30 19:58 47.73229 9.78529 21543 ft 365 kts 271°
2026-04-30 19:58 47.73129 9.74781 21138 ft 363 kts 271°
2026-04-30 19:58 47.73027 9.71035 20724 ft 362 kts 271°
2026-04-30 19:59 47.72925 9.67314 20310 ft 361 kts 271°
2026-04-30 19:59 47.72822 9.63518 20026 ft 371 kts 270°
2026-04-30 19:59 47.72606 9.55789 19211 ft 378 kts 270°
2026-04-30 20:00 47.72495 9.51886 18832 ft 379 kts 270°
2026-04-30 20:00 47.72364 9.47982 18454 ft 378 kts 266°
2026-04-30 20:00 47.71757 9.44196 18172 ft 379 kts 249°
2026-04-30 20:00 47.70456 9.40855 17901 ft 378 kts 230°
2026-04-30 20:01 47.66598 9.35632 17357 ft 373 kts 219°
2026-04-30 20:01 47.64621 9.33152 16920 ft 369 kts 219°
2026-04-30 20:01 47.62668 9.30718 16496 ft 365 kts 219°
2026-04-30 20:02 47.58826 9.25932 15640 ft 358 kts 219°
2026-04-30 20:02 47.56933 9.23567 15211 ft 355 kts 219°
2026-04-30 20:03 47.53200 9.18893 14378 ft 349 kts 219°
2026-04-30 20:03 47.51351 9.16579 13933 ft 346 kts 219°
2026-04-30 20:03 47.49526 9.14294 13500 ft 342 kts 219°
2026-04-30 20:03 47.47715 9.12029 13076 ft 338 kts 219°
2026-04-30 20:04 47.45929 9.09804 12666 ft 334 kts 219°
2026-04-30 20:04 47.44163 9.07607 12242 ft 330 kts 219°
2026-04-30 20:04 47.42436 9.05461 11604 ft 335 kts 219°
2026-04-30 20:05 47.38908 9.01083 10738 ft 328 kts 219°
2026-04-30 20:05 47.37175 8.98929 10333 ft 324 kts 219°
2026-04-30 20:05 47.33865 8.94819 9964 ft 302 kts 219°
2026-04-30 20:06 47.32278 8.92850 9742 ft 296 kts 219°
2026-04-30 20:06 47.30705 8.90904 9439 ft 293 kts 219°
2026-04-30 20:06 47.29156 8.88989 9119 ft 288 kts 219°
2026-04-30 20:06 47.27685 8.87024 8780 ft 283 kts 228°
2026-04-30 20:07 47.26572 8.84674 8451 ft 278 kts 243°
2026-04-30 20:07 47.25767 8.82119 8129 ft 273 kts 245°
2026-04-30 20:07 47.24203 8.77149 7479 ft 265 kts 244°
2026-04-30 20:08 47.23444 8.74703 7168 ft 261 kts 249°
2026-04-30 20:08 47.23275 8.72114 6870 ft 253 kts 283°
2026-04-30 20:08 47.24105 8.69922 6554 ft 245 kts 317°
2026-04-30 20:08 47.25555 8.68701 6223 ft 238 kts 338°
2026-04-30 20:09 47.27073 8.67671 5713 ft 241 kts 335°
2026-04-30 20:09 47.28567 8.66632 5339 ft 232 kts 336°
2026-04-30 20:09 47.31355 8.64721 4683 ft 209 kts 337°
2026-04-30 20:10 47.33768 8.63068 4115 ft 173 kts 338°
2026-04-30 20:10 47.34816 8.62350 3868 ft 160 kts 340°
2026-04-30 20:10 47.35811 8.61670 3640 ft 156 kts 341°
2026-04-30 20:11 47.37729 8.60355 3211 ft 151 kts 341°
2026-04-30 20:11 47.38677 8.59707 2978 ft 150 kts 341°
2026-04-30 20:11 47.39617 8.59060 2746 ft 148 kts 341°
2026-04-30 20:12 47.41456 8.57806 2246 ft 145 kts 339°
2026-04-30 20:12 47.42366 8.57176 2015 ft 144 kts 339°
2026-04-30 20:12 47.43293 8.56539 1825 ft 147 kts 338°
2026-04-30 20:13 47.44214 8.55901 1607 ft 145 kts 340°
2026-04-30 20:13 47.45121 8.55279 1414 ft 140 kts 339°
2026-04-30 20:13 47.45918 8.54747 1389 ft 102 kts 336°
2026-04-30 20:13 47.46366 8.54436 1385 ft 23 kts 334°
2026-04-30 20:14 47.46446 8.54462 1384 ft 12 kts 59°
2026-04-30 20:14 47.46477 8.54562 1383 ft 9 kts 65°
2026-04-30 20:14 47.46459 8.54636 1384 ft 10 kts 139°
2026-04-30 20:14 47.46375 8.54696 1381 ft 14 kts 154°
2026-04-30 20:15 47.46292 8.54753 1383 ft 12 kts 155°
2026-04-30 20:15 47.46220 8.54802 1385 ft 13 kts 155°
2026-04-30 20:15 47.46112 8.54880 1387 ft 18 kts 158°
2026-04-30 20:15 47.46003 8.54957 1398 ft 16 kts 154°
2026-04-30 20:16 47.45911 8.55019 1399 ft 13 kts 157°
2026-04-30 20:16 47.45831 8.55071 1396 ft 14 kts 156°
2026-04-30 20:16 47.45725 8.55144 1397 ft 18 kts 154°
2026-04-30 20:16 47.45617 8.55220 1402 ft 16 kts 154°
2026-04-30 20:17 47.45521 8.55287 1402 ft 14 kts 154°
2026-04-30 20:17 47.45436 8.55345 1404 ft 13 kts 155°
2026-04-30 20:17 47.45349 8.55405 1403 ft 15 kts 154°
2026-04-30 20:17 47.45239 8.55482 1401 ft 20 kts 154°
2026-04-30 20:18 47.45100 8.55579 1408 ft 23 kts 155°
2026-04-30 20:18 47.44942 8.55681 1399 ft 26 kts 154°
2026-04-30 20:18 47.44797 8.55781 1403 ft 16 kts 155°
2026-04-30 20:18 47.44703 8.55845 1399 ft 14 kts 155°
2026-04-30 20:19 47.44631 8.55896 1399 ft 9 kts 154°
2026-04-30 20:19 47.44598 8.55919 1399 ft 7 kts 155°
2026-04-30 20:19 47.44520 8.55972 1402 ft 12 kts 155°
2026-04-30 20:19 47.44437 8.56029 1403 ft 14 kts 155°
2026-04-30 20:20 47.44347 8.56108 1404 ft 15 kts 144°
2026-04-30 20:20 47.44284 8.56157 1404 ft 8 kts 155°
2026-04-30 20:20 47.44245 8.56184 1408 ft 4 kts 155°
2026-04-30 20:20 47.44220 8.56173 1402 ft 6 kts 225°
2026-04-30 20:21 47.44208 8.56140 1401 ft 3 kts 249°
2026-04-30 20:21 47.44203 8.56124 1402 ft 0 kts 243°